owner,sensor,date,latitude,longitude,vertical_datum,direction_of_sea_water_velocity,sea_water_speed,upward_sea_water_velocity,qcFlag 
TABS,ioos:station:wmo:42051:1,2010-04-01T00:00:00Z,29.6350,-93.6417,2.0,301.9139976,6.620755244,-99999.0,'11133222,11111222,99999999' 
TABS,ioos:station:wmo:42051:1,2010-04-01T00:30:00Z,29.6350,-93.6417,2.0,275.9528664,6.364314574,-99999.0,'11133222,11111222,99999999' 
TABS,ioos:station:wmo:42051:1,2010-04-01T01:00:00Z,29.6350,-93.6417,2.0,278.4644468,6.793997351,-99999.0,'11133222,11111222,99999999' 
TABS,ioos:station:wmo:42051:1,2010-04-01T01:30:00Z,29.6350,-93.6417,2.0,282.9163262,8.187142359,-99999.0,'11133222,11111222,99999999' 
TABS,ioos:station:wmo:42051:1,2010-04-01T02:00:00Z,29.6350,-93.6417,2.0,310.0228036,6.764236838,-99999.0,'11133222,11111222,99999999' 
TABS,ioos:station:wmo:42051:1,2010-04-01T02:30:00Z,29.6350,-93.6417,2.0,320.5559642,8.326403786,-99999.0,'11133222,11111222,99999999' 
TABS,ioos:station:wmo:42051:1,2010-04-01T03:00:00Z,29.6350,-93.6417,2.0,329.3389132,13.64804748,-99999.0,'11111222,11111222,99999999' 
TABS,ioos:station:wmo:42051:1,2010-04-01T03:30:00Z,29.6350,-93.6417,2.0,336.9010061,15.90517211,-99999.0,'11111222,11111222,99999999' 
TABS,ioos:station:wmo:42051:1,2010-04-01T04:00:00Z,29.6350,-93.6417,2.0,351.2089318,15.44141185,-99999.0,'11111222,11111222,99999999' 
TABS,ioos:station:wmo:42051:1,2010-04-01T04:30:00Z,29.6350,-93.6417,2.0,0.213544323,18.80013032,-99999.0,'11111222,11111222,99999999' 
TABS,ioos:station:wmo:42051:1,2010-04-01T05:00:00Z,29.6350,-93.6417,2.0,350.8072594,16.08661866,-99999.0,'11111222,11111222,99999999' 
TABS,ioos:station:wmo:42051:1,2010-04-01T05:30:00Z,29.6350,-93.6417,2.0,352.9373798,20.57613423,-99999.0,'11111222,11111222,99999999' 
TABS,ioos:station:wmo:42051:1,2010-04-01T06:00:00Z,29.6350,-93.6417,2.0,355.222756,20.65175053,-99999.0,'11111222,11111222,99999999' 
TABS,ioos:station:wmo:42051:1,2010-04-01T06:30:00Z,29.6350,-93.6417,2.0,357.0124329,21.67946955,-99999.0,'11111222,11111222,99999999' 
TABS,ioos:station:wmo:42051:1,2010-04-01T07:00:00Z,29.6350,-93.6417,2.0,355.9240397,17.30377127,-99999.0,'11111222,11111222,99999999' 
TABS,ioos:station:wmo:42051:1,2010-04-01T07:30:00Z,29.6350,-93.6417,2.0,350.522243,12.02414238,-99999.0,'11111222,11111222,99999999' 
TABS,ioos:station:wmo:42051:1,2010-04-01T08:00:00Z,29.6350,-93.6417,2.0,0.240744921,11.91010495,-99999.0,'11111222,11111222,99999999' 
TABS,ioos:station:wmo:42051:1,2010-04-01T08:30:00Z,29.6350,-93.6417,2.0,333.0778727,10.75569617,-99999.0,'11111222,11111222,99999999' 
TABS,ioos:station:wmo:42051:1,2010-04-01T09:00:00Z,29.6350,-93.6417,2.0,343.1134588,11.11946492,-99999.0,'11111222,11111222,99999999' 
TABS,ioos:station:wmo:42051:1,2010-04-01T09:30:00Z,29.6350,-93.6417,2.0,309.9319239,6.403139855,-99999.0,'11133222,11111222,99999999' 
TABS,ioos:station:wmo:42051:1,2010-04-01T10:00:00Z,29.6350,-93.6417,2.0,349.4610514,3.499028437,-99999.0,'11133222,11111222,99999999' 
TABS,ioos:station:wmo:42051:1,2010-04-01T10:30:00Z,29.6350,-93.6417,2.0,313.9662106,1.959004849,-99999.0,'11133222,11111222,99999999' 
TABS,ioos:station:wmo:42051:1,2010-04-01T11:00:00Z,29.6350,-93.6417,2.0,316.3142056,3.083796362,-99999.0,'11133222,11111222,99999999' 
TABS,ioos:station:wmo:42051:1,2010-04-01T11:30:00Z,29.6350,-93.6417,2.0,240.2722997,4.053455316,-99999.0,'11133222,11111222,99999999' 
TABS,ioos:station:wmo:42051:1,2010-04-01T12:00:00Z,29.6350,-93.6417,2.0,216.6653393,2.24401426,-99999.0,'11133222,11111222,99999999' 
TABS,ioos:station:wmo:42051:1,2010-04-01T12:30:00Z,29.6350,-93.6417,2.0,150.8758042,4.006557126,-99999.0,'11133222,11111222,99999999' 
TABS,ioos:station:wmo:42051:1,2010-04-01T13:00:00Z,29.6350,-93.6417,2.0,152.0905645,4.956490694,-99999.0,'11133222,11111222,99999999' 
TABS,ioos:station:wmo:42051:1,2010-04-01T13:30:00Z,29.6350,-93.6417,2.0,163.1081333,5.988363716,-99999.0,'11133222,11111222,99999999' 
TABS,ioos:station:wmo:42051:1,2010-04-01T14:00:00Z,29.6350,-93.6417,2.0,151.5087228,9.580255738,-99999.0,'11133222,11111222,99999999' 
TABS,ioos:station:wmo:42051:1,2010-04-01T14:30:00Z,29.6350,-93.6417,2.0,162.3902904,8.561173985,-99999.0,'11133222,11111222,99999999' 
TABS,ioos:station:wmo:42051:1,2010-04-01T15:00:00Z,29.6350,-93.6417,2.0,173.061077,8.774263502,-99999.0,'11133222,11111222,99999999' 
TABS,ioos:station:wmo:42051:1,2010-04-01T15:30:00Z,29.6350,-93.6417,2.0,180.7804995,9.540885703,-99999.0,'11133222,11111222,99999999' 
TABS,ioos:station:wmo:42051:1,2010-04-01T16:00:00Z,29.6350,-93.6417,2.0,184.0853968,9.544254816,-99999.0,'11133222,11111222,99999999' 
TABS,ioos:station:wmo:42051:1,2010-04-01T16:30:00Z,29.6350,-93.6417,2.0,172.4319727,7.061508337,-99999.0,'11133222,11111222,99999999' 
TABS,ioos:station:wmo:42051:1,2010-04-01T17:00:00Z,29.6350,-93.6417,2.0,180.394472,8.710206657,-99999.0,'11133222,11111222,99999999' 
TABS,ioos:station:wmo:42051:1,2010-04-01T17:30:00Z,29.6350,-93.6417,2.0,190.2893555,6.71804287,-99999.0,'11133222,11111222,99999999' 
TABS,ioos:station:wmo:42051:1,2010-04-01T18:00:00Z,29.6350,-93.6417,2.0,225.494209,5.734849606,-99999.0,'11133222,11111222,99999999' 
TABS,ioos:station:wmo:42051:1,2010-04-01T18:30:00Z,29.6350,-93.6417,2.0,250.6227602,6.540473989,-99999.0,'11133222,11111222,99999999' 
TABS,ioos:station:wmo:42051:1,2010-04-01T19:00:00Z,29.6350,-93.6417,2.0,235.6267754,10.00750219,-99999.0,'11111222,11111222,99999999' 
TABS,ioos:station:wmo:42051:1,2010-04-01T19:30:00Z,29.6350,-93.6417,2.0,248.0857576,12.29862594,-99999.0,'11111222,11111222,99999999' 
TABS,ioos:station:wmo:42051:1,2010-04-01T20:00:00Z,29.6350,-93.6417,2.0,255.5925604,13.86605207,-99999.0,'11111222,11111222,99999999' 
TABS,ioos:station:wmo:42051:1,2010-04-01T20:30:00Z,29.6350,-93.6417,2.0,280.3338421,12.54344849,-99999.0,'11111222,11111222,99999999' 
TABS,ioos:station:wmo:42051:1,2010-04-01T21:00:00Z,29.6350,-93.6417,2.0,268.4799818,17.34610043,-99999.0,'11111222,11111222,99999999' 
TABS,ioos:station:wmo:42051:1,2010-04-01T21:30:00Z,29.6350,-93.6417,2.0,269.1882571,18.36184087,-99999.0,'11111222,11111222,99999999' 
TABS,ioos:station:wmo:42051:1,2010-04-01T22:00:00Z,29.6350,-93.6417,2.0,280.1520609,19.40377283,-99999.0,'11111222,11111222,99999999' 
TABS,ioos:station:wmo:42051:1,2010-04-01T22:30:00Z,29.6350,-93.6417,2.0,271.9824854,19.37159002,-99999.0,'11111222,11111222,99999999' 
TABS,ioos:station:wmo:42051:1,2010-04-01T23:00:00Z,29.6350,-93.6417,2.0,271.0141673,22.04345027,-99999.0,'11111222,11111222,99999999' 
TABS,ioos:station:wmo:42051:1,2010-04-01T23:30:00Z,29.6350,-93.6417,2.0,266.339,20.36154218,-99999.0,'11111222,11111222,99999999' 
TABS,ioos:station:wmo:42051:1,2010-04-02T00:00:00Z,29.6350,-93.6417,2.0,262.348946,18.92849703,-99999.0,'11111222,11111222,99999999' 
TABS,ioos:station:wmo:42051:1,2010-04-02T00:30:00Z,29.6350,-93.6417,2.0,262.0630454,17.16440794,-99999.0,'11111222,11111222,99999999' 
TABS,ioos:station:wmo:42051:1,2010-04-02T01:00:00Z,29.6350,-93.6417,2.0,266.0659918,15.30605762,-99999.0,'11111222,11111222,99999999' 
TABS,ioos:station:wmo:42051:1,2010-04-02T01:30:00Z,29.6350,-93.6417,2.0,269.9204415,14.48001381,-99999.0,'11111222,11111222,99999999' 
TABS,ioos:station:wmo:42051:1,2010-04-02T02:00:00Z,29.6350,-93.6417,2.0,276.4969406,15.37875157,-99999.0,'11111222,11111222,99999999' 
TABS,ioos:station:wmo:42051:1,2010-04-02T02:30:00Z,29.6350,-93.6417,2.0,288.5457227,16.41225152,-99999.0,'11111222,11111222,99999999' 
TABS,ioos:station:wmo:42051:1,2010-04-02T03:00:00Z,29.6350,-93.6417,2.0,291.02105460285,14.998146552158,-99999.0,'1111122,1111122,1199999999' 
TABS,ioos:station:wmo:42051:1,2010-04-02T03:30:00Z,29.6350,-93.6417,2.0,292.99442412147,14.002606900145,-99999.0,'1111122,1111122,1199999999' 
TABS,ioos:station:wmo:42051:1,2010-04-02T04:00:00Z,29.6350,-93.6417,2.0,296.98139104507,16.001724907022,-99999.0,'1111122,1111122,1199999999' 
TABS,ioos:station:wmo:42051:1,2010-04-02T04:30:00Z,29.6350,-93.6417,2.0,287.02127115523,14.996923017739,-99999.0,'1111122,1111122,1199999999' 
TABS,ioos:station:wmo:42051:1,2010-04-02T05:30:00Z,29.6350,-93.6417,2.0,261.0018461961,14.002321236138,-99999.0,'1111122,1111122,1199999999' 
TABS,ioos:station:wmo:42051:1,2010-04-02T06:30:00Z,29.6350,-93.6417,2.0,273.3161097,15.90662755,-99999.0,'11111222,11111222,99999999' 
TABS,ioos:station:wmo:42051:1,2010-04-02T07:00:00Z,29.6350,-93.6417,2.0,282.3237056,13.30659987,-99999.0,'11111222,11111222,99999999' 
TABS,ioos:station:wmo:42051:1,2010-04-02T07:30:00Z,29.6350,-93.6417,2.0,275.9455258,13.61321784,-99999.0,'11111222,11111222,99999999' 
TABS,ioos:station:wmo:42051:1,2010-04-02T08:00:00Z,29.6350,-93.6417,2.0,279.1245312,13.36915854,-99999.0,'11111222,11111222,99999999' 
TABS,ioos:station:wmo:42051:1,2010-04-02T08:30:00Z,29.6350,-93.6417,2.0,292.5788045,13.83000362,-99999.0,'11111222,11111222,99999999' 
TABS,ioos:station:wmo:42051:1,2010-04-02T09:00:00Z,29.6350,-93.6417,2.0,291.6643454,14.70897005,-99999.0,'11111222,11111222,99999999' 
TABS,ioos:station:wmo:42051:1,2010-04-02T09:30:00Z,29.6350,-93.6417,2.0,281.9378134,17.54952421,-99999.0,'11111222,11111222,99999999' 
TABS,ioos:station:wmo:42051:1,2010-04-02T10:00:00Z,29.6350,-93.6417,2.0,272.7572507,15.17756568,-99999.0,'11111222,11111222,99999999' 
TABS,ioos:station:wmo:42051:1,2010-04-02T10:30:00Z,29.6350,-93.6417,2.0,246.1064484,16.78876112,-99999.0,'11111222,11111222,99999999' 
TABS,ioos:station:wmo:42051:1,2010-04-02T11:00:00Z,29.6350,-93.6417,2.0,262.1112481,16.75857989,-99999.0,'11111222,11111222,99999999' 
TABS,ioos:station:wmo:42051:1,2010-04-02T11:30:00Z,29.6350,-93.6417,2.0,262.7095476,12.05746657,-99999.0,'11111222,11111222,99999999' 
TABS,ioos:station:wmo:42051:1,2010-04-02T12:00:00Z,29.6350,-93.6417,2.0,257.2350175,8.961473093,-99999.0,'11133222,11111222,99999999' 
TABS,ioos:station:wmo:42051:1,2010-04-02T12:30:00Z,29.6350,-93.6417,2.0,240.4903774,8.445596486,-99999.0,'11133222,11111222,99999999' 
TABS,ioos:station:wmo:42051:1,2010-04-02T13:00:00Z,29.6350,-93.6417,2.0,233.1297677,11.3,-99999.0,'11111222,11111222,99999999' 
TABS,ioos:station:wmo:42051:1,2010-04-02T13:30:00Z,29.6350,-93.6417,2.0,237.4885447,13.21020817,-99999.0,'11111222,11111222,99999999' 
TABS,ioos:station:wmo:42051:1,2010-04-02T14:00:00Z,29.6350,-93.6417,2.0,251.1270719,11.59324803,-99999.0,'11111222,11111222,99999999' 
TABS,ioos:station:wmo:42051:1,2010-04-02T14:30:00Z,29.6350,-93.6417,2.0,239.2641633,6.88743784,-99999.0,'11133222,11111222,99999999' 
TABS,ioos:station:wmo:42051:1,2010-04-02T15:00:00Z,29.6350,-93.6417,2.0,248.599819,6.35836457,-99999.0,'11133222,11111222,99999999' 
TABS,ioos:station:wmo:42051:1,2010-04-02T15:30:00Z,29.6350,-93.6417,2.0,244.2188474,6.207906249,-99999.0,'11133222,11111222,99999999' 
TABS,ioos:station:wmo:42051:1,2010-04-02T16:00:00Z,29.6350,-93.6417,2.0,228.6081447,6.291581677,-99999.0,'11133222,11111222,99999999' 
TABS,ioos:station:wmo:42051:1,2010-04-02T16:30:00Z,29.6350,-93.6417,2.0,255.1077179,7.47093033,-99999.0,'11133222,11111222,99999999' 
TABS,ioos:station:wmo:42051:1,2010-04-02T17:00:00Z,29.6350,-93.6417,2.0,240.4916336,10.80103699,-99999.0,'11111222,11111222,99999999' 
TABS,ioos:station:wmo:42051:1,2010-04-02T17:30:00Z,29.6350,-93.6417,2.0,256.1456929,6.097376485,-99999.0,'11133222,11111222,99999999' 
TABS,ioos:station:wmo:42051:1,2010-04-02T18:00:00Z,29.6350,-93.6417,2.0,271.0420452,7.151181721,-99999.0,'11133222,11111222,99999999' 
TABS,ioos:station:wmo:42051:1,2010-04-02T18:30:00Z,29.6350,-93.6417,2.0,280.161833,8.218917204,-99999.0,'11133222,11111222,99999999' 
TABS,ioos:station:wmo:42051:1,2010-04-02T19:00:00Z,29.6350,-93.6417,2.0,299.6300367,4.935352064,-99999.0,'11133222,11111222,99999999' 
TABS,ioos:station:wmo:42051:1,2010-04-02T19:30:00Z,29.6350,-93.6417,2.0,265.7336781,4.301918177,-99999.0,'11133222,11111222,99999999' 
TABS,ioos:station:wmo:42051:1,2010-04-02T20:00:00Z,29.6350,-93.6417,2.0,296.6214174,4.574997268,-99999.0,'11133222,11111222,99999999' 
TABS,ioos:station:wmo:42051:1,2010-04-02T20:30:00Z,29.6350,-93.6417,2.0,247.6817839,3.50235635,-99999.0,'11133222,11111222,99999999' 
TABS,ioos:station:wmo:42051:1,2010-04-02T21:00:00Z,29.6350,-93.6417,2.0,305.9170652,6.852948271,-99999.0,'11133222,11111222,99999999' 
TABS,ioos:station:wmo:42051:1,2010-04-02T21:30:00Z,29.6350,-93.6417,2.0,314.8754888,6.491255657,-99999.0,'11133222,11111222,99999999' 
TABS,ioos:station:wmo:42051:1,2010-04-02T22:00:00Z,29.6350,-93.6417,2.0,313.1880338,9.614390256,-99999.0,'11133222,11111222,99999999' 
TABS,ioos:station:wmo:42051:1,2010-04-02T22:30:00Z,29.6350,-93.6417,2.0,318.8668309,10.27643907,-99999.0,'11111222,11111222,99999999' 
TABS,ioos:station:wmo:42051:1,2010-04-02T23:00:00Z,29.6350,-93.6417,2.0,293.6945819,12.14367325,-99999.0,'11111222,11111222,99999999' 
TABS,ioos:station:wmo:42051:1,2010-04-02T23:30:00Z,29.6350,-93.6417,2.0,306.3702434,15.12657595,-99999.0,'11111222,11111222,99999999' 
TABS,ioos:station:wmo:42051:1,2010-04-03T00:00:00Z,29.6350,-93.6417,2.0,307.0110076,13.02403931,-99999.0,'11111222,11111222,99999999' 
TABS,ioos:station:wmo:42051:1,2010-04-03T00:30:00Z,29.6350,-93.6417,2.0,337.8696114,14.86515725,-99999.0,'11111222,11111222,99999999' 
TABS,ioos:station:wmo:42051:1,2010-04-03T01:00:00Z,29.6350,-93.6417,2.0,338.5138844,18.23741484,-99999.0,'11111222,11111222,99999999' 
TABS,ioos:station:wmo:42051:1,2010-04-03T01:30:00Z,29.6350,-93.6417,2.0,325.0464165,17.22763187,-99999.0,'11111222,11111222,99999999' 
TABS,ioos:station:wmo:42051:1,2010-04-03T02:00:00Z,29.6350,-93.6417,2.0,320.1164129,14.9867308,-99999.0,'11111222,11111222,99999999' 
TABS,ioos:station:wmo:42051:1,2010-04-03T02:30:00Z,29.6350,-93.6417,2.0,316.0362904,15.64375914,-99999.0,'11111222,11111222,99999999' 
TABS,ioos:station:wmo:42051:1,2010-04-03T03:00:00Z,29.6350,-93.6417,2.0,314.5469471,14.29814673,-99999.0,'11111222,11111222,99999999' 
TABS,ioos:station:wmo:42051:1,2010-04-03T03:30:00Z,29.6350,-93.6417,2.0,295.4429562,11.8713268,-99999.0,'11111222,11111222,99999999' 
TABS,ioos:station:wmo:42051:1,2010-04-03T04:00:00Z,29.6350,-93.6417,2.0,290.5109047,11.78721765,-99999.0,'11111222,11111222,99999999' 
TABS,ioos:station:wmo:42051:1,2010-04-03T04:30:00Z,29.6350,-93.6417,2.0,293.654579,13.20984481,-99999.0,'11111222,11111222,99999999' 
TABS,ioos:station:wmo:42051:1,2010-04-03T05:00:00Z,29.6350,-93.6417,2.0,291.4995667,14.43429943,-99999.0,'11111222,11111222,99999999' 
TABS,ioos:station:wmo:42051:1,2010-04-03T05:30:00Z,29.6350,-93.6417,2.0,280.1096958,14.41377813,-99999.0,'11111222,11111222,99999999' 
TABS,ioos:station:wmo:42051:1,2010-04-03T06:00:00Z,29.6350,-93.6417,2.0,276.6316774,10.65125814,-99999.0,'11111222,11111222,99999999' 
TABS,ioos:station:wmo:42051:1,2010-04-03T06:30:00Z,29.6350,-93.6417,2.0,273.0204129,12.52739797,-99999.0,'11111222,11111222,99999999' 
TABS,ioos:station:wmo:42051:1,2010-04-03T07:00:00Z,29.6350,-93.6417,2.0,285.1660464,12.91995743,-99999.0,'11111222,11111222,99999999' 
TABS,ioos:station:wmo:42051:1,2010-04-03T07:30:00Z,29.6350,-93.6417,2.0,280.9731737,10.66498007,-99999.0,'11111222,11111222,99999999' 
TABS,ioos:station:wmo:42051:1,2010-04-03T08:00:00Z,29.6350,-93.6417,2.0,270.2944935,11.69015398,-99999.0,'11111222,11111222,99999999' 
TABS,ioos:station:wmo:42051:1,2010-04-03T08:30:00Z,29.6350,-93.6417,2.0,259.8875624,11.16340898,-99999.0,'11111222,11111222,99999999' 
TABS,ioos:station:wmo:42051:1,2010-04-03T09:00:00Z,29.6350,-93.6417,2.0,265.9407803,13.70437157,-99999.0,'11111222,11111222,99999999' 
TABS,ioos:station:wmo:42051:1,2010-04-03T09:30:00Z,29.6350,-93.6417,2.0,255.4030377,14.88027217,-99999.0,'11111222,11111222,99999999' 
TABS,ioos:station:wmo:42051:1,2010-04-03T10:00:00Z,29.6350,-93.6417,2.0,257.6639178,15.44662099,-99999.0,'11111222,11111222,99999999' 
TABS,ioos:station:wmo:42051:1,2010-04-03T10:30:00Z,29.6350,-93.6417,2.0,270.0737358,15.6300128,-99999.0,'11111222,11111222,99999999' 
TABS,ioos:station:wmo:42051:1,2010-04-03T11:00:00Z,29.6350,-93.6417,2.0,255.8065949,13.29585274,-99999.0,'11111222,11111222,99999999' 
TABS,ioos:station:wmo:42051:1,2010-04-03T11:30:00Z,29.6350,-93.6417,2.0,247.5237044,15.61620312,-99999.0,'11111222,11111222,99999999' 
TABS,ioos:station:wmo:42051:1,2010-04-03T12:00:00Z,29.6350,-93.6417,2.0,250.0853094,14.94358056,-99999.0,'11111222,11111222,99999999' 
TABS,ioos:station:wmo:42051:1,2010-04-03T12:30:00Z,29.6350,-93.6417,2.0,243.9099886,14.55283134,-99999.0,'11111222,11111222,99999999' 
TABS,ioos:station:wmo:42051:1,2010-04-03T13:00:00Z,29.6350,-93.6417,2.0,262.6779191,13.73196636,-99999.0,'11111222,11111222,99999999' 
TABS,ioos:station:wmo:42051:1,2010-04-03T13:30:00Z,29.6350,-93.6417,2.0,277.0813734,14.52075067,-99999.0,'11111222,11111222,99999999' 
TABS,ioos:station:wmo:42051:1,2010-04-03T14:00:00Z,29.6350,-93.6417,2.0,278.9316147,12.94697648,-99999.0,'11111222,11111222,99999999' 
TABS,ioos:station:wmo:42051:1,2010-04-03T14:30:00Z,29.6350,-93.6417,2.0,268.4885336,12.51435176,-99999.0,'11111222,11111222,99999999' 
TABS,ioos:station:wmo:42051:1,2010-04-03T15:00:00Z,29.6350,-93.6417,2.0,267.4475724,12.35225081,-99999.0,'11111222,11111222,99999999' 
TABS,ioos:station:wmo:42051:1,2010-04-03T15:30:00Z,29.6350,-93.6417,2.0,288.329485,10.27109537,-99999.0,'11111222,11111222,99999999' 
TABS,ioos:station:wmo:42051:1,2010-04-03T16:00:00Z,29.6350,-93.6417,2.0,289.0777176,9.025707728,-99999.0,'11133222,11111222,99999999' 
TABS,ioos:station:wmo:42051:1,2010-04-03T16:30:00Z,29.6350,-93.6417,2.0,294.4232369,11.24633718,-99999.0,'11111222,11111222,99999999' 
TABS,ioos:station:wmo:42051:1,2010-04-03T17:00:00Z,29.6350,-93.6417,2.0,293.5292058,12.07382707,-99999.0,'11111222,11111222,99999999' 
TABS,ioos:station:wmo:42051:1,2010-04-03T17:30:00Z,29.6350,-93.6417,2.0,290.968562,10.08803747,-99999.0,'11111222,11111222,99999999' 
TABS,ioos:station:wmo:42051:1,2010-04-03T18:00:00Z,29.6350,-93.6417,2.0,306.2813111,6.810359756,-99999.0,'11133222,11111222,99999999' 
TABS,ioos:station:wmo:42051:1,2010-04-03T18:30:00Z,29.6350,-93.6417,2.0,282.5625738,7.448308533,-99999.0,'11133222,11111222,99999999' 
TABS,ioos:station:wmo:42051:1,2010-04-03T19:00:00Z,29.6350,-93.6417,2.0,285.3002002,10.11862145,-99999.0,'11111222,11111222,99999999' 
TABS,ioos:station:wmo:42051:1,2010-04-03T19:30:00Z,29.6350,-93.6417,2.0,294.6854838,10.22433372,-99999.0,'11111222,11111222,99999999' 
TABS,ioos:station:wmo:42051:1,2010-04-03T20:00:00Z,29.6350,-93.6417,2.0,288.0684232,9.382670196,-99999.0,'11133222,11111222,99999999' 
TABS,ioos:station:wmo:42051:1,2010-04-03T20:30:00Z,29.6350,-93.6417,2.0,276.4000772,7.446401816,-99999.0,'11133222,11111222,99999999' 
TABS,ioos:station:wmo:42051:1,2010-04-03T21:00:00Z,29.6350,-93.6417,2.0,312.0387868,11.63330134,-99999.0,'11111222,11111222,99999999' 
TABS,ioos:station:wmo:42051:1,2010-04-03T21:30:00Z,29.6350,-93.6417,2.0,326.6462627,12.29514132,-99999.0,'11111222,11111222,99999999' 
TABS,ioos:station:wmo:42051:1,2010-04-03T22:00:00Z,29.6350,-93.6417,2.0,329.2826552,11.17838092,-99999.0,'11111222,11111222,99999999' 
TABS,ioos:station:wmo:42051:1,2010-04-03T22:30:00Z,29.6350,-93.6417,2.0,317.8027607,12.14848139,-99999.0,'11111222,11111222,99999999' 
TABS,ioos:station:wmo:42051:1,2010-04-03T23:00:00Z,29.6350,-93.6417,2.0,313.4906357,14.22485501,-99999.0,'11111222,11111222,99999999' 
TABS,ioos:station:wmo:42051:1,2010-04-03T23:30:00Z,29.6350,-93.6417,2.0,328.9067593,14.38705321,-99999.0,'11111222,11111222,99999999' 
TABS,ioos:station:wmo:42051:1,2010-04-04T00:00:00Z,29.6350,-93.6417,2.0,317.7202339,12.06976802,-99999.0,'11111222,11111222,99999999' 
TABS,ioos:station:wmo:42051:1,2010-04-04T00:30:00Z,29.6350,-93.6417,2.0,312.0166226,13.17712032,-99999.0,'11111222,11111222,99999999' 
TABS,ioos:station:wmo:42051:1,2010-04-04T01:00:00Z,29.6350,-93.6417,2.0,315.4325462,8.436023945,-99999.0,'11133222,11111222,99999999' 
TABS,ioos:station:wmo:42051:1,2010-04-04T01:30:00Z,29.6350,-93.6417,2.0,284.2217209,6.757077771,-99999.0,'11133222,11111222,99999999' 
TABS,ioos:station:wmo:42051:1,2010-04-04T02:00:00Z,29.6350,-93.6417,2.0,313.5785379,8.834483573,-99999.0,'11133222,11111222,99999999' 
TABS,ioos:station:wmo:42051:1,2010-04-04T02:30:00Z,29.6350,-93.6417,2.0,290.1407933,8.712772234,-99999.0,'11133222,11111222,99999999' 
TABS,ioos:station:wmo:42051:1,2010-04-04T03:00:00Z,29.6350,-93.6417,2.0,269.1607569,6.830732025,-99999.0,'11133222,11111222,99999999' 
TABS,ioos:station:wmo:42051:1,2010-04-04T03:30:00Z,29.6350,-93.6417,2.0,245.0557321,8.062015877,-99999.0,'11133222,11111222,99999999' 
TABS,ioos:station:wmo:42051:1,2010-04-04T04:00:00Z,29.6350,-93.6417,2.0,275.5492944,7.756345789,-99999.0,'11133222,11111222,99999999' 
TABS,ioos:station:wmo:42051:1,2010-04-04T04:30:00Z,29.6350,-93.6417,2.0,259.1798753,7.564476188,-99999.0,'11133222,11111222,99999999' 
TABS,ioos:station:wmo:42051:1,2010-04-04T05:00:00Z,29.6350,-93.6417,2.0,262.3035454,7.093898787,-99999.0,'11133222,11111222,99999999' 
TABS,ioos:station:wmo:42051:1,2010-04-04T05:30:00Z,29.6350,-93.6417,2.0,268.0063356,8.625218838,-99999.0,'11133222,11111222,99999999' 
TABS,ioos:station:wmo:42051:1,2010-04-04T06:00:00Z,29.6350,-93.6417,2.0,281.7686823,7.84489643,-99999.0,'11133222,11111222,99999999' 
TABS,ioos:station:wmo:42051:1,2010-04-04T06:30:00Z,29.6350,-93.6417,2.0,265.6602577,7.401216116,-99999.0,'11133222,11111222,99999999' 
TABS,ioos:station:wmo:42051:1,2010-04-04T07:00:00Z,29.6350,-93.6417,2.0,269.3622789,8.990556156,-99999.0,'11133222,11111222,99999999' 
TABS,ioos:station:wmo:42051:1,2010-04-04T07:30:00Z,29.6350,-93.6417,2.0,271.6369941,8.053285044,-99999.0,'11133222,11111222,99999999' 
TABS,ioos:station:wmo:42051:1,2010-04-04T08:00:00Z,29.6350,-93.6417,2.0,280.2837177,9.522966975,-99999.0,'11133222,11111222,99999999' 
TABS,ioos:station:wmo:42051:1,2010-04-04T08:30:00Z,29.6350,-93.6417,2.0,267.2098369,9.451200982,-99999.0,'11133222,11111222,99999999' 
TABS,ioos:station:wmo:42051:1,2010-04-04T09:00:00Z,29.6350,-93.6417,2.0,278.6564173,10.6310912,-99999.0,'11111222,11111222,99999999' 
TABS,ioos:station:wmo:42051:1,2010-04-04T09:30:00Z,29.6350,-93.6417,2.0,288.8175043,11.37812814,-99999.0,'11111222,11111222,99999999' 
TABS,ioos:station:wmo:42051:1,2010-04-04T10:00:00Z,29.6350,-93.6417,2.0,291.7629152,10.95045661,-99999.0,'11111222,11111222,99999999' 
TABS,ioos:station:wmo:42051:1,2010-04-04T10:30:00Z,29.6350,-93.6417,2.0,295.418714,10.94998174,-99999.0,'11111222,11111222,99999999' 
TABS,ioos:station:wmo:42051:1,2010-04-04T11:00:00Z,29.6350,-93.6417,2.0,265.3145036,11.50845341,-99999.0,'11111222,11111222,99999999' 
TABS,ioos:station:wmo:42051:1,2010-04-04T11:30:00Z,29.6350,-93.6417,2.0,284.1901616,14.48185416,-99999.0,'11111222,11111222,99999999' 
TABS,ioos:station:wmo:42051:1,2010-04-04T12:00:00Z,29.6350,-93.6417,2.0,277.2688985,14.85940779,-99999.0,'11111222,11111222,99999999' 
TABS,ioos:station:wmo:42051:1,2010-04-04T12:30:00Z,29.6350,-93.6417,2.0,271.4751863,14.76489079,-99999.0,'11111222,11111222,99999999' 
TABS,ioos:station:wmo:42051:1,2010-04-04T13:00:00Z,29.6350,-93.6417,2.0,274.5213682,17.25368366,-99999.0,'11111222,11111222,99999999' 
TABS,ioos:station:wmo:42051:1,2010-04-04T13:30:00Z,29.6350,-93.6417,2.0,264.6404366,16.06020236,-99999.0,'11111222,11111222,99999999' 
TABS,ioos:station:wmo:42051:1,2010-04-04T14:00:00Z,29.6350,-93.6417,2.0,275.2450805,16.51915857,-99999.0,'11111222,11111222,99999999' 
TABS,ioos:station:wmo:42051:1,2010-04-04T14:30:00Z,29.6350,-93.6417,2.0,271.5514983,15.88582072,-99999.0,'11111222,11111222,99999999' 
TABS,ioos:station:wmo:42051:1,2010-04-04T15:00:00Z,29.6350,-93.6417,2.0,261.0434506,12.65428386,-99999.0,'11111222,11111222,99999999' 
TABS,ioos:station:wmo:42051:1,2010-04-04T15:30:00Z,29.6350,-93.6417,2.0,249.4492542,11.82232634,-99999.0,'11111222,11111222,99999999' 
TABS,ioos:station:wmo:42051:1,2010-04-04T16:00:00Z,29.6350,-93.6417,2.0,265.4011518,15.84099113,-99999.0,'11111222,11111222,99999999' 
TABS,ioos:station:wmo:42051:1,2010-04-04T16:30:00Z,29.6350,-93.6417,2.0,271.7176308,15.01674399,-99999.0,'11111222,11111222,99999999' 